When you browse on this site, cookies collect data to enhance your experience and personalize the content and advertising you see.
Visit our Privacy Policy to learn more. By continuing to use the site, you agree to this use of cookies and data.
  • In Hungary
  • List of Countries
  • For 7 days
  • Water Temperature
  • Satellite Maps
  • Weather Map
  • News
  • Weather Widgets
  • user-avatar
    Login

    Hourly Weather Balatonfоldvаr

    Today, 17 February, Sunday

    Time Temperature Precipitation Wind Pressure Humidity
    00:00 +6°C° 0 mm 1 mps 762 mmHg 76%
    01:00 +6°C° 0 mm 1 mps 762 mmHg 77%
    02:00 +5°C° 0 mm 1 mps 762 mmHg 78%
    03:00 +5°C° 0 mm 1 mps 761 mmHg 78%
    04:00 +5°C° 0 mm 1 mps 761 mmHg 79%
    05:00 +4°C° 0 mm 1 mps 761 mmHg 79%
    06:00 +4°C° 0 mm 1 mps 761 mmHg 80%
    07:00 +4°C° 0 mm 1 mps 761 mmHg 80%
    08:00 +6°C° 0 mm 1 mps 761 mmHg 73%
    09:00 +7°C° 0 mm 1 mps 761 mmHg 66%
    10:00 +9°C° 0 mm 1 mps 761 mmHg 58%
    11:00 +10°C° 0 mm 1 mps 761 mmHg 54%
    12:00 +12°C° 0 mm 1 mps 761 mmHg 49%
    13:00 +13°C° 0 mm 2 mps 760 mmHg 45%
    14:00 +13°C° 0 mm 1 mps 760 mmHg 46%
    15:00 +13°C° 0 mm 1 mps 760 mmHg 47%
    16:00 +13°C° 0 mm 1 mps 759 mmHg 48%
    17:00 +12°C° 0 mm 1 mps 759 mmHg 52%
    18:00 +10°C° 0 mm 1 mps 759 mmHg 56%
    19:00 +9°C° 0 mm 1 mps 759 mmHg 59%
    20:00 +8°C° 0 mm 1 mps 759 mmHg 61%
    21:00 +8°C° 0 mm 1 mps 759 mmHg 62%
    22:00 +8°C° 0 mm 1 mps 759 mmHg 63%
    23:00 +7°C° 0 mm 1 mps 759 mmHg 65%

    Tomorrow, 18 February, Monday

    Time Temperature Precipitation Wind Pressure Humidity
    00:00 +7°C° 0 mm 1 mps 759 mmHg 66%
    01:00 +7°C° 0 mm 1 mps 759 mmHg 68%
    02:00 +6°C° 0 mm 1 mps 759 mmHg 69%
    03:00 +5°C° 0 mm 0 mps 759 mmHg 71%
    04:00 +5°C° 0 mm 0 mps 759 mmHg 72%
    05:00 +4°C° 0 mm 0 mps 759 mmHg 74%
    06:00 +4°C° 0 mm 0 mps 759 mmHg 75%
    07:00 +4°C° 0 mm 0 mps 758 mmHg 76%
    08:00 +6°C° 0 mm 1 mps 759 mmHg 70%
    09:00 +8°C° 0 mm 1 mps 759 mmHg 63%
    10:00 +10°C° 0 mm 1 mps 759 mmHg 56%
    11:00 +11°C° 0 mm 1 mps 758 mmHg 52%
    12:00 +12°C° 0 mm 1 mps 758 mmHg 47%
    13:00 +13°C° 0 mm 2 mps 758 mmHg 43%
    14:00 +14°C° 0 mm 2 mps 758 mmHg 43%
    15:00 +14°C° 0 mm 2 mps 757 mmHg 43%
    16:00 +14°C° 0 mm 1 mps 757 mmHg 44%
    17:00 +12°C° 0 mm 1 mps 757 mmHg 48%
    18:00 +11°C° 0 mm 1 mps 757 mmHg 52%
    19:00 +9°C° 0 mm 1 mps 757 mmHg 56%
    20:00 +9°C° 0 mm 1 mps 757 mmHg 59%
    21:00 +8°C° 0 mm 1 mps 757 mmHg 61%
    22:00 +8°C° 0 mm 1 mps 757 mmHg 64%
    23:00 +7°C° 0 mm 1 mps 757 mmHg 66%

    Day after tomorrow, 19 February, Tuesday

    Time Temperature Precipitation Wind Pressure Humidity
    00:00 +7°C° 0 mm 1 mps 757 mmHg 69%
    01:00 +7°C° 0 mm 1 mps 757 mmHg 71%
    02:00 +6°C° 0 mm 1 mps 756 mmHg 73%
    03:00 +6°C° 0 mm 1 mps 756 mmHg 75%
    04:00 +5°C° 0 mm 1 mps 756 mmHg 76%
    05:00 +5°C° 0 mm 1 mps 756 mmHg 78%
    06:00 +5°C° 0 mm 1 mps 756 mmHg 79%
    07:00 +5°C° 0 mm 1 mps 756 mmHg 81%
    08:00 +6°C° 0 mm 1 mps 756 mmHg 74%
    09:00 +8°C° 0 mm 1 mps 756 mmHg 67%
    10:00 +9°C° 0 mm 1 mps 757 mmHg 60%
    11:00 +11°C° 0 mm 1 mps 756 mmHg 56%
    12:00 +12°C° 0 mm 1 mps 756 mmHg 52%
    13:00 +13°C° 0 mm 2 mps 756 mmHg 48%
    14:00 +13°C° 0 mm 1 mps 756 mmHg 48%
    15:00 +13°C° 0 mm 1 mps 755 mmHg 48%
    16:00 +13°C° 0 mm 1 mps 755 mmHg 48%
    17:00 +12°C° 0 mm 1 mps 755 mmHg 53%
    18:00 +11°C° 0 mm 1 mps 755 mmHg 58%
    19:00 +8°C° 0 mm 2 mps 755 mmHg 63%
    20:00 +9°C° 0 mm 1 mps 756 mmHg 64%
    21:00 +8°C° 0 mm 1 mps 756 mmHg 66%
    22:00 +8°C° 0 mm 1 mps 756 mmHg 67%
    23:00 +7°C° 0 mm 2 mps 756 mmHg 68%

    20 February, Wednesday

    Time Temperature Precipitation Wind Pressure Humidity
    00:00 +6°C° 0 mm 2 mps 756 mmHg 69%
    01:00 +6°C° 0 mm 2 mps 756 mmHg 71%
    02:00 +6°C° 0 mm 2 mps 756 mmHg 72%
    03:00 +6°C° 0 mm 2 mps 756 mmHg 73%
    04:00 +5°C° 0 mm 2 mps 756 mmHg 74%
    05:00 +5°C° 0 mm 2 mps 757 mmHg 75%
    06:00 +5°C° 0 mm 2 mps 757 mmHg 76%
    07:00 +5°C° 0 mm 2 mps 757 mmHg 77%
    08:00 +7°C° 0 mm 3 mps 758 mmHg 73%
    09:00 +8°C° 0 mm 3 mps 758 mmHg 69%
    10:00 +10°C° 0 mm 4 mps 759 mmHg 65%
    11:00 +11°C° 0 mm 4 mps 759 mmHg 62%
    12:00 +12°C° 0 mm 4 mps 759 mmHg 59%
    13:00 +12°C° 0 mm 4 mps 759 mmHg 56%
    14:00 +12°C° 0 mm 4 mps 759 mmHg 56%
    15:00 +12°C° 0 mm 3 mps 758 mmHg 55%
    16:00 +12°C° 0 mm 3 mps 758 mmHg 55%
    17:00 +12°C° 0 mm 2 mps 759 mmHg 60%
    18:00 +10°C° 0 mm 2 mps 759 mmHg 65%
    19:00 +9°C° 0 mm 1 mps 759 mmHg 70%
    20:00 +9°C° 0 mm 1 mps 760 mmHg 71%
    21:00 +9°C° 0 mm 1 mps 760 mmHg 72%
    22:00 +8°C° 0 mm 1 mps 760 mmHg 73%
    23:00 +8°C° 0 mm 1 mps 760 mmHg 74%

    21 February, Thursday

    Time Temperature Precipitation Wind Pressure Humidity
    00:00 +8°C° 0 mm 1 mps 760 mmHg 75%
    01:00 +6°C° 0 mm 2 mps 761 mmHg 76%
    02:00 +6°C° 0 mm 2 mps 761 mmHg 79%
    03:00 +6°C° 0 mm 2 mps 761 mmHg 82%
    04:00 +5°C° 0 mm 2 mps 761 mmHg 85%
    05:00 +5°C° 0 mm 2 mps 761 mmHg 86%
    06:00 +5°C° 0 mm 2 mps 761 mmHg 87%
    07:00 +4°C° 0 mm 2 mps 761 mmHg 88%
    08:00 +6°C° 0 mm 2 mps 761 mmHg 80%
    09:00 +8°C° 0 mm 2 mps 762 mmHg 72%
    10:00 +9°C° 0 mm 2 mps 762 mmHg 64%
    11:00 +10°C° 0 mm 3 mps 762 mmHg 60%
    12:00 +11°C° 0 mm 3 mps 761 mmHg 56%
    13:00 +12°C° 0 mm 3 mps 761 mmHg 52%
    14:00 +12°C° 0 mm 3 mps 761 mmHg 52%
    15:00 +12°C° 0 mm 3 mps 760 mmHg 53%
    16:00 +12°C° 0 mm 3 mps 760 mmHg 54%
    17:00 +12°C° 0 mm 2 mps 760 mmHg 59%
    18:00 +10°C° 0 mm 2 mps 760 mmHg 64%
    19:00 +10°C° 0 mm 1 mps 760 mmHg 70%
    20:00 +10°C° 0 mm 1 mps 760 mmHg 71%
    21:00 +10°C° 0 mm 1 mps 761 mmHg 72%
    22:00 +9°C° 0 mm 2 mps 761 mmHg 73%
    23:00 +8°C° 0 mm 2 mps 760 mmHg 74%

    22 February, Friday

    Time Temperature Precipitation Wind Pressure Humidity
    00:00 +8°C° 0 mm 2 mps 760 mmHg 75%
    01:00 +8°C° 0 mm 2 mps 760 mmHg 77%
    02:00 +8°C° 0.1 mm 2 mps 760 mmHg 78%
    03:00 +8°C° 0.1 mm 3 mps 760 mmHg 80%
    04:00 +7°C° 0.1 mm 3 mps 759 mmHg 81%
    05:00 +7°C° 0.4 mm 3 mps 759 mmHg 83%
    06:00 +7°C° 0.4 mm 3 mps 759 mmHg 85%
    07:00 +7°C° 0.4 mm 3 mps 759 mmHg 86%
    08:00 +7°C° 0 mm 5 mps 759 mmHg 80%
    09:00 +8°C° 0 mm 6 mps 759 mmHg 74%
    10:00 +9°C° 0 mm 8 mps 759 mmHg 67%
    11:00 +9°C° 0.2 mm 8 mps 758 mmHg 65%
    12:00 +10°C° 0.2 mm 8 mps 758 mmHg 62%
    13:00 +10°C° 0.2 mm 9 mps 758 mmHg 59%
    14:00 +10°C° 0 mm 8 mps 758 mmHg 61%
    15:00 +9°C° 0 mm 8 mps 758 mmHg 62%
    16:00 +9°C° 0 mm 8 mps 758 mmHg 64%
    17:00 +8°C° 0 mm 7 mps 758 mmHg 67%
    18:00 +6°C° 0 mm 7 mps 759 mmHg 69%
    19:00 +5°C° 0 mm 6 mps 759 mmHg 72%
    20:00 +5°C° 0 mm 6 mps 760 mmHg 73%
    21:00 +5°C° 0 mm 7 mps 760 mmHg 74%
    22:00 +5°C° 0 mm 7 mps 761 mmHg 75%
    23:00 +4°C° 0 mm 7 mps 761 mmHg 77%
    Show more